TIANWANG 1B (TW-1B)
1 40927U 15051C   18172.16288220  .00007625  00000-0  14810-3 0  9999
2 40927  97.1908 214.3101 0007776 276.0828 134.1855 15.47884721153834
TIANWANG 1A (TW-1A)
1 40928U 15051D   18171.78248983 +.00002143 +00000-0 +58004-4 0  9993
2 40928 097.1848 205.7006 0010569 316.1294 133.3776 15.38733705153336
LAPAN A2
1 40931U 15052B   18171.36807793 +.00000639 +00000-0 -14784-6 0  9990
2 40931 005.9982 127.4286 0013844 050.7763 309.3948 14.76577973147475
LQSAT
1 40958U 15057A   18171.83356845  .00000014  00000-0  98891-5 0  9999
2 40958  97.9397 244.8944 0017603 329.4165  30.6005 14.73034964145380
CHUBUSAT 2
1 41338U 16012B   18171.70758545 +.00000303 +00000-0 +16958-4 0  9997
2 41338 031.0035 291.2828 0013704 107.9680 252.2450 14.99987188128365
CHUBUSAT 3
1 41339U 16012C   18171.65436063 +.00000272 +00000-0 +14473-4 0  9995
2 41339 031.0117 290.2088 0013391 114.7190 245.4847 15.00174287128341
OUFTI-1
1 41458U 16025C   18171.89609015 +.00001742 +00000-0 +93560-4 0  9993
2 41458 098.1375 234.9447 0171406 134.9630 226.5626 15.04682438118005
E-STAR-2
1 41459U 16025D   18171.77061164 +.00001984 +00000-0 +10634-3 0  9996
2 41459 098.1376 234.6499 0172471 136.2478 225.2568 15.04415041117968
AAUSAT 4
1 41460U 16025E   18171.81226850  .00001964  00000-0  10436-3 0  9996
2 41460  98.1287 235.2015 0163371 131.8991 229.6302 15.05842901118035
NUSAT 1
1 41557U 16033B   18171.70867368 +.00001326 +00000-0 +51138-4 0  9992
2 41557 097.4377 255.9184 0015486 145.6826 214.5417 15.28014344114698
BEESAT 4
1 41619U 16040W   18171.88188371 +.00001280 +00000-0 +58849-4 0  9993
2 41619 097.4147 234.9776 0010727 209.9246 150.1379 15.22135822098657
PRATHAM
1 41783U 16059A   18171.62558715 +.00000039 +00000-0 +16961-4 0  9990
2 41783 098.1172 233.1302 0035001 085.2727 275.2470 14.62927651092468
ALSAT 1N
1 41789U 16059G   18171.85339775 +.00000035 +00000-0 +15672-4 0  9998
2 41789 098.1187 234.5841 0029800 076.7943 283.6566 14.64159943092550
NAYIF 1
1 42017U 17008BX  18171.90342777 +.00001391 +00000-0 +59581-4 0  9993
2 42017 097.4478 236.9387 0006795 022.3144 337.8388 15.24457908074631
LILACSAT-1
1 42725U 98067ME  18171.86749025  .00022362  00000-0  18995-3 0  9999
2 42725  51.6366 339.3314 0004244 241.4293 118.6277 15.69536381 61099
MAX VALIER SAT
1 42778U 17036P   18171.92986002 +.00000958 +00000-0 +45787-4 0  9996
2 42778 097.4029 231.5808 0014174 061.3560 298.9099 15.21319037055071
